Regional Weather Roundup
Issued by NWS Cleveland, OH

Home | Current Version | Previous Version | Text Only | Print | Product List | Glossary Off
Versions: 1 2 3 4 5 6 7 8 9 10 11 12 13 14 15 16 17 18 19 20 21 22 23 24 25 26 27 28 29 30 31 32 33 34 35 36 37 38 39 40 41 42 43 44 45 46 47 48 49 50

000
ASUS41 KCLE 290100
RWRCLE
OHIO REGIONAL WEATHER ROUNDUP
NATIONAL WEATHER SERVICE WILMINGTON, OH
900 PM EDT TUE MAR 28 2017

NOTE: "FAIR" INDICATES FEW OR NO CLOUDS BELOW 12,000 FEET WITH NO
SIGNIFICANT WEATHER AND/OR OBSTRUCTIONS TO VISIBILITY.

OHZ001>008-015>018-024>027-034-035-043-044-290200-
   NORTHWEST OHIO

CITY           SKY/WX    TMP DP  RH WIND       PRES   REMARKS
DEFIANCE       CLOUDY    46  39  76 N10       30.17R
FINDLAY        CLOUDY    48  39  71 E9        30.14R
TOLEDO EXPRESS CLOUDY    46  40  79 N9        30.16R
TOLEDO EXEC    CLOUDY    47  40  76 CALM      30.16R
LIMA           CLOUDY    47  44  90 NE10      30.13R
$$

OHZ009>014-019>023-028>033-038-089-290200-
   NORTHEAST OHIO

CITY           SKY/WX    TMP DP  RH WIND       PRES   REMARKS
CLE-HOPKINS    CLOUDY    42  36  79 N9        30.17R
CLE-LAKEFRONT  CLOUDY    39  36  89 NW8       30.14R
CUY CO. ARPT   CLOUDY    41  39  93 NW6       30.14R
LORAIN-ELYRIA  CLOUDY    40  35  83 N8        30.15R
ASHTABULA      CLOUDY    41  40  96 NW5       30.12R
AKRON-CANTON   CLOUDY    43  39  86 N6        30.12R
WOOSTER        NOT AVBL
MANSFIELD      CLOUDY    42  39  89 N9        30.13R
YOUNGSTOWN     CLOUDY    43  40  89 NW12      30.11R
$$

OHZ042-051>053-060>062-070>072-077>081-290200-
  SOUTHWEST OHIO

CITY           SKY/WX    TMP DP  RH WIND       PRES   REMARKS
CINC-COVINGTON CLOUDY    55  48  77 N13       30.10R
CINC-LUNKEN    CLOUDY    56  50  80 N8        30.11R
HAMILTON       CLOUDY    55  48  77 N7        30.12R
DAYTON         NOT AVBL
WRIGHT-PAT AFB NOT AVBL
DAYTON GENERAL CLOUDY    53  47  79 N8        30.10R
WILMINGTON     CLOUDY    51  48  89 NE9       30.10R
$$

OHZ036-037-039>041-045>050-054>059-063>069-073>076-082>088-290200-
  CENTRAL AND SOUTHEAST OHIO

CITY           SKY/WX    TMP DP  RH WIND       PRES   REMARKS
COLUMBUS       CLOUDY    50  43  77 N13       30.11R
OSU AIRPORT    CLOUDY    47  43  86 N12       30.12R
BOLTON FIELD   NOT AVBL
RICKENBACK AFB NOT AVBL
NEWARK         CLOUDY    49  41  74 NE7       30.11R
MARION         CLOUDY    45  40  82 N12       30.14R
LANCASTER      CLOUDY    53  46  77 N9        30.10R
ZANESVILLE     CLOUDY    49  41  74 N10       30.10R
NEW PHILLY     CLOUDY    47  42  83 N8        30.11R
$$



USA.gov is the U.S. government's official web portal to all federal, state and local government web resources and services.